Regional Weather Roundup
Issued by NWS Midland/Odessa, TX

Skip options and go directly to product.
Home | Oldest Version | Previous Version | Current Version | All | Graphics & Text | Save Text | Print | Product List | Glossary On

Skip product version selection by date and time.   
015
ASUS44 KMAF 031010
RWRMAF
MIDLAND AREA WEATHER ROUNDUP
NATIONAL WEATHER SERVICE MIDLAND TX
500 AM CDT FRI JUL 03 2015

...IN SOUTHWEST TEXAS AND SOUTHEAST NEW MEXICO...

CITY           SKY/WX    TMP DP  RH WIND       PRES   REMARKS
ALPINE         PTCLDY    62  57  86 SW3       30.12R
ANDREWS        FAIR      69  63  79 CALM      30.03S
ARTESIA        CLOUDY    75  63  64 W3        30.05S
BIG SPRING     CLOUDY    74  65  73 SE10      30.02F
CARLSBAD       CLOUDY    75  63  66 SE5       30.01S
DRYDEN           N/A     74  67  78 VRB6      29.95R
FORT STOCKTON  PTCLDY    70  65  84 SE7       29.98F
GUAD PASS      CLOUDY    67  59  75 NE15      30.15S
HOBBS          CLOUDY    70  63  78 CALM      30.05F
MARFA          PTCLDY   N/A N/A N/A N7        30.11S
MIDLAND AIRPK  MOCLDY    74  65  75 SE8       30.02R
MIDLAND INTL   MOCLDY    72  65  78 SE8       30.01R
ODESSA         MOCLDY    72  64  76 SE9       30.02R
PECOS          PTCLDY    73  62  70 E7        29.96F
PRESIDIO       NOT AVBL
SEMINOLE       MOCLDY    69  61  77 CALM      30.04S
SNYDER         CLOUDY    72  66  80 S6        30.00R
WINK           CLOUDY    75  63  66 E9        29.98R
$$
...OTHER STATIONS IN TEXAS...

CITY           SKY/WX    TMP DP  RH WIND       PRES   REMARKS
ABILENE        CLOUDY    75  66  73 S13       29.98S
AMARILLO       CLOUDY    67  62  84 W7        30.04F
AUSTIN         PTCLDY    75  75 100 S6        29.98F
BROWNSVILLE    CLEAR     76  74  93 E3        29.94R
CORPUS CHRISTI PTCLDY    77  75  93 SE5       29.96S
DALLAS FTW     CLOUDY    80  71  74 SW18      29.92F
DEL RIO        CLEAR     75  70  84 E9        29.93R
EL PASO        CLOUDY    82  54  37 NE10      30.05R THUNDER
HOUSTON INT    MOCLDY    76  75  97 S3        30.00S
LUBBOCK        MOCLDY    71  63  75 W8        30.02F
SAN ANGELO     PTCLDY    73  67  81 S7        29.99R
SAN ANTONIO    CLOUDY    78  74  87 S8        29.99F
WACO           CLOUDY    77  73  87 S10       29.98S
WICHITA FALLS  NOT AVBL
$$
...OTHER LOCATIONS IN NEW MEXICO...

CITY           SKY/WX    TMP DP  RH WIND       PRES   REMARKS
ALAMAGORDO     CLOUDY    73  59  60 S8        30.08R
ALBUQUERQUE    CLOUDY    70  58  65 N8        30.16S
CANNON AFB     CLOUDY    71  63  77 N17       30.09R
CLOVIS         CLOUDY    70  61  73 N3          N/A
HOLLOMAN AFB   CLOUDY    74  60  61 SW6       30.06R
ROSWELL        MOCLDY    70  62  76 SW6       30.04S
RUIDOSO        CLOUDY    59  57  94 SW7       30.27S
SANTA FE       PTCLDY    60  56  86 N8        30.24R
TRUTH OR CONSE CLOUDY    69  65  86 W8        30.12S
TUCUMCARI      LGT RAIN  67  64  90 N8        30.10S
$$

USA.gov is the U.S. government's official web portal to all federal, state and local government web resources and services.